Location: Chenereilles
(45.4866°N, 4.0790°E)
Time: 13:54:34
(UTC+00:00)

ATLAS 5 CENTAUR R/B - Pass Details

Date: 12 November 2019
Orbit: 563 x 1096 km, 63.3° (Epoch: 29 November)

Event Time Altitude Azimuth Distance (km) Brightness Sun altitude
Rises 16:45:07 0° 325° (NW) 3,232 5.5 -5.4°
Reaches altitude 10° 16:47:39 10° 336° (NNW) 2,390 4.6 -5.8°
Maximum altitude 16:52:37 32° 38° (NE) 1,493 3.1 -6.6°
Drops below altitude 10° 16:58:11 10° 100° (E) 2,708 4.3 -7.5°
Enters shadow 17:00:29 - 108° (ESE) 3,472 4.9 -7.9°
